FREGAT DEB, 45891

Orbit data source: Space-Track

FREGAT DEB, 45891 is space debris in LEO originally from a launch on Mon, 18 Jul 2011 UTC launched from the Tyuratam Missile And Space Complex (TTMTR). Debris objects in space refer to the collection of defunct objects orbiting the Earth. Examples of debris include non-operational satellites, rocket bodies, and fragments generated from explosions, collisions, or faulty payload assembly.

Loading next visibility...
Identifier
45891, 2011-037DL
Orbit
LEO
Country
Flag of CISCIS
Related business
Manufacturer
Lavochkin
Mission
Spacecraft
Bus & Motor
Unknown
Mass
Unknown
Launch date (UTC)
2011-07-18 (15 years ago)
Launch vehicle
Unknown
Launch site
Tyuratam Missile And Space Complex (TTMTR)
Object type
Payload
Rocket body
Debris
Shape & HBR
Unknown shape, 0.1 m
Radar Cross Section
Medium (>0.1 m² and <1 m²)

Expand to show TLE details & history
Last TLE update: 1 day ago

TLE from 1 day ago
0 FREGAT DEB
1 45891U 11037DL  26255.89107762  .00002525  00000-0  20117-2 0  9996
2 45891  51.3354 155.1336 1134640 173.4267 188.3007 12.35927289267553
Epoch: 2026-09-12T21:23Z
TLE epoch observation values (Epoch: 2026-09-12T21:23:09.106Z)
Latitude
-0.00001°
Longitude
-157.54793°
Altitude
2,413.532 km
Speed
6.346 km/s
True Right ascension
10h 20m 32s
True Declination
0° 00' 00"
Sunlit
Object was in daylight at epoch
Visualization orbit readout
Latitude
Unknown
Longitude
Unknown
Altitude
Unknown
Speed
Unknown
Apparent Right ascension
Unknown
Apparent Declination
Unknown
Sunlit
N/A
Visualization observer readout
Local Sidereal Time
16:03:10
Azimuth
Unknown
Elevation
Unknown
Doppler factor
Unknown
Orbital elements
Apogee altitude
2,421.06 km
Perigee altitude
627.752 km
Semi-major axis
7,902.543 km
Eccentricity
0.11346
Inclination
51.3354°
RAAN
155.1336°
Arg. of periapsis
173.4267°
True anomaly
186.65577°
Mean anomaly
188.3007°
Eccentric anomaly
187.45699°
Mean motion
3.08953 °/min
Orbital period
116.52 mins
BSTAR
0.0020117
Loading maneuver chart data...
Computing Atmospheric mass density...
Loading historical data...
Loading historical data...
Loading historical data...
Loading historical data...
Loading historical data...
Loading historical data...
Loading historical data...

Documentation

Showing up to 5 results
|